CDT,Max TemperatureF,Mean TemperatureF,Min TemperatureF,Max Dew PointF,MeanDew PointF,Min DewpointF,Max Humidity, Mean Humidity, Min Humidity, Max Sea Level PressureIn, Mean Sea Level PressureIn, Min Sea Level PressureIn, Max VisibilityMiles, Mean VisibilityMiles, Min VisibilityMiles, Max Wind SpeedMPH, Mean Wind SpeedMPH, Max Gust SpeedMPH,PrecipitationIn, CloudCover, Events, WindDirDegrees
2012-9-1,73,72,71,72,70,68,100,91,83,29.94,29.85,29.77,10.0,7.1,2.0,22,14,31,0.00,8,Rain,353
2012-9-2,87,76,64,72,66,61,94,74,49,29.97,29.92,29.88,10.0,10.0,10.0,7,4,,0.00,1,,328
2012-9-3,91,76,62,72,68,63,100,76,41,30.02,29.90,29.84,10.0,7.2,0.2,30,3,50,0.00,2,Fog-Rain-Thunderstorm,105
2012-9-4,93,80,68,73,70,68,100,75,44,29.98,29.85,29.77,10.0,9.7,0.8,16,6,26,0.00,1,Rain-Thunderstorm,138
2012-9-5,89,79,69,72,67,59,100,70,43,29.88,29.82,29.77,10.0,9.6,4.0,12,2,,0.00,0,,317
2012-9-6,87,76,66,70,62,57,83,61,40,30.00,29.91,29.82,10.0,10.0,10.0,9,4,,0.00,1,,94
2012-9-7,82,71,59,68,64,55,88,75,61,30.05,29.87,29.79,10.0,9.9,5.0,26,8,33,0.00,2,Rain-Thunderstorm,325
2012-9-8,77,64,50,55,49,45,94,67,32,30.15,30.08,30.00,10.0,10.0,10.0,15,4,21,0.00,0,,304
2012-9-9,73,62,50,54,50,46,100,67,38,30.20,30.12,29.99,10.0,10.0,10.0,13,3,16,0.00,0,,5
2012-9-10,78,62,46,55,51,46,100,70,36,30.19,30.12,30.02,10.0,10.0,10.0,14,3,18,0.00,0,,159
2012-9-11,87,73,59,59,54,50,82,57,27,30.07,30.02,29.97,10.0,10.0,10.0,16,6,23,0.00,0,,154
2012-9-12,86,74,62,63,59,55,88,62,35,30.10,30.03,30.00,10.0,10.0,10.0,14,6,21,0.00,0,,149
2012-9-13,69,62,55,61,52,45,94,82,49,30.38,30.28,30.08,10.0,9.8,4.0,21,10,26,0.00,7,Rain-Thunderstorm,11
2012-9-14,71,60,50,54,49,41,100,75,33,30.40,30.35,30.30,10.0,10.0,7.0,9,4,,0.00,1,,26
2012-9-15,71,58,44,55,51,45,100,77,49,30.31,30.22,30.13,10.0,10.0,10.0,13,2,17,0.00,1,,120
2012-9-16,71,62,53,63,59,54,100,87,69,30.12,30.05,29.96,10.0,8.2,0.5,6,1,,0.00,5,Fog,203
2012-9-17,78,64,51,64,57,50,100,82,44,30.02,29.93,29.85,10.0,7.9,1.5,20,3,29,0.00,5,,327
2012-9-18,68,55,42,48,41,32,100,68,28,30.12,30.06,30.02,10.0,9.8,1.8,12,2,18,0.00,0,,318
2012-9-19,80,63,46,55,48,43,93,60,34,30.04,29.95,29.85,10.0,10.0,10.0,20,5,28,0.00,0,,177
2012-9-20,73,58,44,55,46,32,100,65,22,30.05,30.01,29.96,10.0,10.0,10.0,12,2,17,0.00,1,Rain,311
2012-9-21,78,64,50,54,44,34,94,54,20,29.99,29.88,29.81,10.0,9.9,5.0,21,5,31,0.00,0,,276
2012-9-22,64,52,41,45,36,27,100,59,24,30.29,30.16,29.95,10.0,9.9,2.0,20,4,21,0.00,0,,340
2012-9-23,68,50,32,45,37,32,100,69,26,30.36,30.29,30.22,10.0,10.0,10.0,6,0,,0.00,0,,51
2012-9-24,77,59,41,59,48,39,100,72,46,30.24,30.05,29.83,10.0,10.0,10.0,12,2,16,0.00,0,,138
2012-9-25,80,70,60,64,62,57,100,78,51,29.90,29.81,29.77,10.0,9.8,5.0,10,3,,0.00,1,Rain-Thunderstorm,234
2012-9-26,71,66,60,64,63,61,100,88,69,30.11,30.00,29.86,10.0,9.6,4.0,8,3,,0.00,4,Rain-Thunderstorm,267
2012-9-27,73,65,55,61,54,50,100,72,44,30.18,30.13,30.10,10.0,8.9,0.8,8,2,,0.00,3,,52
2012-9-28,73,62,50,55,49,43,100,71,33,30.20,30.14,30.10,10.0,8.9,1.2,10,2,,0.00,1,,85
2012-9-29,73,57,41,52,45,41,100,72,31,30.19,30.11,30.04,10.0,9.5,1.5,8,1,,0.00,0,,55
2012-9-30,78,61,44,55,49,43,100,71,28,30.04,29.95,29.87,10.0,9.8,7.0,7,1,,0.00,0,,301